TimeEST,TemperatureF,Dew PointF,Humidity,Sea Level PressureIn,VisibilityMPH,Wind Direction,Wind SpeedMPH,Gust SpeedMPH,PrecipitationIn,Events,Conditions,WindDirDegrees,DateUTC
12:53 AM,55.0,48.0,77,30.23,10.0,NNE,9.2,-,N/A,,Scattered Clouds,20,2012-11-17 05:53:00
1:53 AM,55.0,48.9,80,30.23,10.0,North,10.4,-,N/A,,Overcast,10,2012-11-17 06:53:00
2:21 AM,55.4,48.2,77,30.22,10.0,North,10.4,-,N/A,,Mostly Cloudy,10,2012-11-17 07:21:00
2:53 AM,57.0,50.0,77,30.22,10.0,NNE,12.7,-,N/A,,Overcast,20,2012-11-17 07:53:00
3:53 AM,57.0,50.0,77,30.22,10.0,NNE,12.7,-,N/A,,Overcast,20,2012-11-17 08:53:00
4:19 AM,57.2,50.0,77,30.21,10.0,NNE,15.0,-,N/A,,Overcast,20,2012-11-17 09:19:00
4:53 AM,55.9,48.9,77,30.21,10.0,NNE,15.0,21.9,N/A,,Scattered Clouds,20,2012-11-17 09:53:00
5:53 AM,55.0,48.0,77,30.23,10.0,North,10.4,19.6,N/A,,Overcast,10,2012-11-17 10:53:00
6:53 AM,54.0,46.9,77,30.24,10.0,North,12.7,-,N/A,,Overcast,10,2012-11-17 11:53:00
7:53 AM,53.1,46.0,77,30.27,10.0,NNE,13.8,18.4,N/A,,Overcast,20,2012-11-17 12:53:00
8:53 AM,54.0,46.9,77,30.27,10.0,North,13.8,-,N/A,,Overcast,10,2012-11-17 13:53:00
9:53 AM,54.0,46.0,75,30.29,10.0,North,12.7,20.7,N/A,,Overcast,10,2012-11-17 14:53:00
10:53 AM,54.0,46.0,75,30.29,10.0,North,11.5,-,N/A,,Overcast,360,2012-11-17 15:53:00
11:18 AM,53.6,46.4,77,30.28,10.0,North,12.7,-,N/A,,Overcast,360,2012-11-17 16:18:00
11:53 AM,54.0,45.0,72,30.28,10.0,North,11.5,20.7,N/A,,Overcast,10,2012-11-17 16:53:00
12:53 PM,55.0,46.0,72,30.27,10.0,North,12.7,-,N/A,,Overcast,10,2012-11-17 17:53:00
1:02 PM,55.4,46.4,72,30.26,10.0,North,12.7,18.4,N/A,,Overcast,10,2012-11-17 18:02:00
1:53 PM,55.9,46.9,72,30.25,10.0,NNE,13.8,20.7,N/A,,Overcast,20,2012-11-17 18:53:00
2:46 PM,55.4,46.4,72,30.25,10.0,NNE,17.3,21.9,N/A,,Overcast,30,2012-11-17 19:46:00
2:53 PM,55.0,46.9,74,30.25,10.0,NNE,15.0,-,N/A,,Overcast,20,2012-11-17 19:53:00
3:11 PM,55.4,46.4,72,30.25,10.0,NNE,16.1,21.9,N/A,,Overcast,20,2012-11-17 20:11:00
3:53 PM,55.9,48.0,75,30.25,10.0,North,13.8,18.4,N/A,,Overcast,10,2012-11-17 20:53:00
4:53 PM,57.0,46.0,67,30.26,10.0,NNE,10.4,-,N/A,,Mostly Cloudy,30,2012-11-17 21:53:00
5:13 PM,55.4,46.4,72,30.27,10.0,NNE,11.5,-,N/A,,Mostly Cloudy,30,2012-11-17 22:13:00
5:53 PM,57.0,46.0,67,30.27,10.0,NNE,16.1,23.0,N/A,,Overcast,30,2012-11-17 22:53:00
6:53 PM,55.9,46.0,69,30.28,10.0,NNE,12.7,21.9,N/A,,Overcast,20,2012-11-17 23:53:00
7:53 PM,55.9,46.0,69,30.28,10.0,North,12.7,18.4,N/A,,Overcast,10,2012-11-18 00:53:00
8:53 PM,54.0,46.0,75,30.28,10.0,North,8.1,-,N/A,,Overcast,350,2012-11-18 01:53:00
9:53 PM,53.1,46.0,77,30.28,10.0,North,8.1,-,N/A,,Overcast,350,2012-11-18 02:53:00
10:53 PM,52.0,46.0,80,30.27,10.0,North,6.9,-,N/A,,Overcast,360,2012-11-18 03:53:00
11:53 PM,55.0,46.9,74,30.25,10.0,NNE,13.8,20.7,N/A,,Overcast,20,2012-11-18 04:53:00